EUTELSAT 36A

Last updated on Sun Feb 26 2017 00:17:09 GMT+0000 (Coordinated Universal Time)

1 26369U 00028A 17055.70673149 -.00000151 00000-0 00000-0 0 9999 2 26369 0.7799 84.8480 0001763 269.3187 135.5002 1.00270871 61352

Satellite not in orbit

EUTELSAT 36A